Regional Weather Roundup
Issued by NWS

Home | Current Version | Previous Version | Text Only | Print | Product List | Glossary Off
Versions: 1 2 3 4 5 6 7 8 9 10 11 12 13 14 15 16 17 18 19 20 21 22 23 24 25 26 27 28 29 30 31 32 33 34 35 36 37 38 39 40 41 42 43 44 45 46 47 48 49 50

000
ASUS43 KIND 190609
RWRIN

WEATHER ROUNDUP FOR INDIANA
NATIONAL WEATHER SERVICE INDIANAPOLIS IN
100 AM EST MON FEB 19 2018

NOTE: "FAIR" INDICATES FEW OR NO CLOUDS BELOW 12,000 FEET WITH NO
SIGNIFICANT WEATHER AND/OR OBSTRUCTIONS TO VISIBILITY.

* - STATION DOES NOT REPORT WEATHER SUCH AS PRECIPITATION OR FOG.

+ - STATION NOT QUALITY CONTROLLED BY THE NATIONAL WEATHER SERVICE.
    USE DATA WITH CAUTION...ESPECIALLY DEWPOINT AND RELATIVE
    HUMIDITY OBSERVATIONS.

INZ001>003-010>013-019-020-190700-
NORTHWEST INDIANA

CITY           SKY/WX    TMP DP  RH WIND       PRES   REMARKS
GARY /AIRPORT/ FAIR      43  31  62 S12G22    29.88F
LA PORTE +     FAIR      38  32  80 S10       29.93F WCI  30
6HR MIN TEMP:  32; 6HR MAX TEMP:  38;

MICHIGAN CITY+ MOCLDY    37  32  81 S10       29.90F WCI  30
MONTICELLO +   FAIR      43  32  65 S10G17    29.93F
6HR MIN TEMP:  37; 6HR MAX TEMP:  43;

RENSSELAER +   MOCLDY    39  32  75 S15       29.91F WCI  31
VALPARAISO     MOCLDY    40  32  73 S12       29.90F WCI  33
6HR MIN TEMP:  37; 6HR MAX TEMP:  40;


$$

LMZ046-743>745-190700-
SOUTHERN LAKE MICHIGAN

STATION/POSITION TIME  TEMP    WIND        PRES    WAVE
                       AIR SEA DIR/SP/G            HT
                 (UTC) (F)     (DEG/KT/KT) (MB)    (FT)
BURNS HARBOR     0529   41     170/ 16/ 25 1012.5F
MICHIGAN CITY    0540   40     150/ 21/ 26   N/A

$$

INZ004-005-014>016-021>024-190700-
NORTH CENTRAL INDIANA

CITY           SKY/WX    TMP DP  RH WIND       PRES   REMARKS
GOSHEN         FAIR      37  31  78 S14       29.97F WCI  28
6HR MIN TEMP:  35; 6HR MAX TEMP:  38;

LOGANSPORT +   MOCLDY    41  32  70 S12       29.96F
PERU/GRISSOM   CLOUDY    41  38  88 S10       29.97F
6HR MIN TEMP:  36; 6HR MAX TEMP:  42;

ROCHESTER +    CLOUDY    41  34  75 S8        29.97F
SOUTH BEND     CLOUDY    37  30  75 S10       29.96F WCI  30
6HR MIN TEMP:  33; 6HR MAX TEMP:  38;

WARSAW +       CLOUDY    37  32  81 S6        29.97F WCI  33

$$

INZ006>009-017-018-025>027-190700-
NORTHEAST INDIANA

CITY           SKY/WX    TMP DP  RH WIND       PRES   REMARKS
AUBURN +       FAIR      34  32  93 SE6       30.01F WCI  29
FORT WAYNE     MOCLDY    37  32  82 SE9       30.02F WCI  30
6HR MIN TEMP:  35; 6HR MAX TEMP:  38;

HUNTINGTON +   MOCLDY    36  32  85 SE8       30.00F WCI  30
6HR MIN TEMP:  35; 6HR MAX TEMP:  37;

KENDALLVILLE + FAIR      34  31  88 S12       29.98F WCI  26

$$

INZ028-029-035-036-043>045-051>053-190700-
WEST CENTRAL INDIANA

CITY           SKY/WX    TMP DP  RH WIND       PRES   REMARKS
CRAWFORDSVL +  FAIR      39  33  78 SE14      29.96F WCI  31
6HR MIN TEMP:  37; 6HR MAX TEMP:  40;

GREENCASTLE +  MOCLDY    41  32  70 S8        30.00S
LAFAYETTE      MOCLDY    43  33  68 S12G18    29.94F
6HR MIN TEMP:  39; 6HR MAX TEMP:  43;

TERRE HAUTE    MOCLDY    46  35  65 S14       29.98F
6HR MIN TEMP:  41; 6HR MAX TEMP:  46;


$$

INZ030>032-037>040-046>048-054>057-064-065-190700-
CENTRAL INDIANA

CITY           SKY/WX    TMP DP  RH WIND       PRES   REMARKS
FISHERS *+     MOCLDY    41  36  81 S8        30.00F
FRANKFORT +    CLOUDY    43  36  75 S8        29.98F
6HR MIN TEMP:  38; 6HR MAX TEMP:  44;

GREENWOOD *+   MOCLDY   N/A N/A N/A S9        30.03F
INDIANAPOLIS   MOCLDY    43  33  68 SE12      30.01F
6HR MIN TEMP:  40; 6HR MAX TEMP:  43;

-EAGLE CREEK   CLOUDY    44  32  62 S8        30.00F
6HR MIN TEMP:  41; 6HR MAX TEMP:  44;

KOKOMO +       FAIR      40  33  76 S15       29.98F WCI  32
6HR MIN TEMP:  36; 6HR MAX TEMP:  40;

MARION +       FAIR      39  32  76 S14       29.99F HAZE    WCI  31
MT COMFORT *+  FAIR      41  37  87 S12       30.01F
SHELBYVILLE    MOCLDY    43  34  70 S10       30.03F
6HR MIN TEMP:  40; 6HR MAX TEMP:  44;

ZIONSVILLE +   MOCLDY    41  33  74 S14       29.99F
6HR MIN TEMP:  38; 6HR MAX TEMP:  41;


$$

INZ033-034-041-042-049-050-058-059-190700-
EAST CENTRAL INDIANA

CITY           SKY/WX    TMP DP  RH WIND       PRES   REMARKS
MUNCIE         FAIR      44  32  62 S14       30.00F
6HR MIN TEMP:  39; 6HR MAX TEMP:  45;

RICHMOND +     CLOUDY    36  34  93 S13       30.06F WCI  27

$$

INZ060-061-067>069-081>083-085>088-190700-
SOUTHWEST INDIANA

CITY           SKY/WX    TMP DP  RH WIND       PRES   REMARKS
EVANSVILLE     CLOUDY    49  38  65 SE5       30.04R
6HR MIN TEMP:  48; 6HR MAX TEMP:  50;

HUNTINGBURG +  CLOUDY    51  38  60 S9        30.05S
6HR MIN TEMP:  43; 6HR MAX TEMP:  51;

WASHINGTON +   CLOUDY    47  34  61 S14       30.02R
6HR MIN TEMP:  42; 6HR MAX TEMP:  47;


$$

INZ062-063-066-070>080-084-089>092-190700-
SOUTH CENTRAL AND SOUTHEAST INDIANA

CITY           SKY/WX    TMP DP  RH WIND       PRES   REMARKS
BATESVILLE +   MOCLDY    41  34  75 MISG      30.05F
BEDFORD +      CLOUDY    46  34  61 SE8       30.03F
BLOOMINGTON    CLOUDY    44  34  67 S8        30.01F
6HR MIN TEMP:  43; 6HR MAX TEMP:  45;

FRENCH LICK *+ CLOUDY    48  30  49 S8        30.04F
MADISON *+     CLOUDY    45  32  61 SE6       30.08S
NORTH VERNON + CLOUDY    45  32  61 SE6       30.06F
SEYMOUR +      CLOUDY    46  34  61 SE7       30.06F

$$




USA.gov is the U.S. government's official web portal to all federal, state and local government web resources and services.